Location: Hokitika
(42.7170°S, 170.9670°E)
Time: 19:06:08
(UTC+13:00)

Meteor 2-8 Rocket - Visible Passes

Search period start: 20 November 2019 00:00
Search period end: 30 November 2019 00:00
Orbit: 937 x 958 km, 82.5° (Epoch: 18 November)

Date Brightness Start Highest point End Pass type
(mag) Time Alt. Az. Time Alt. Az. Time Alt. Az.
20 Nov 4.5 01:00:15 61° WNW 01:01:01 67° W 01:07:10 10° S visible
20 Nov 6.8 02:46:38 10° WSW 02:47:06 10° WSW 02:47:35 10° SW visible
20 Nov 5.5 23:32:47 28° E 23:33:30 28° E 23:38:37 10° SSE visible
21 Nov 5.1 01:16:50 39° WNW 01:18:03 44° WSW 01:23:56 10° S visible
21 Nov 4.9 23:49:22 42° ENE 23:50:12 44° E 23:56:00 10° SSE visible
22 Nov 5.8 01:33:25 25° W 01:35:11 29° WSW 01:40:29 10° SSW visible
23 Nov 4.4 00:05:56 57° NE 00:07:01 69° E 00:13:09 10° SSE visible
23 Nov 6.3 01:49:58 15° W 01:52:27 19° WSW 01:56:42 10° SSW visible
23 Nov 6.1 22:38:26 14° E 22:39:56 15° E 22:43:19 10° SE visible
24 Nov 4.4 00:22:29 55° NNW 00:23:55 79° W 00:30:07 10° S visible
24 Nov 6.7 02:07:29 10° W 02:09:50 12° WSW 02:12:11 10° SW visible
24 Nov 5.6 22:54:58 22° ENE 22:56:31 24° E 23:01:19 10° SSE visible
25 Nov 5.0 00:39:00 38° NW 00:40:55 51° WSW 00:46:56 10° S visible
25 Nov 5.1 23:11:27 31° ENE 23:13:11 37° E 23:18:48 10° SSE visible
26 Nov 5.7 00:55:30 25° WNW 00:58:01 33° WSW 01:03:34 10° S visible
26 Nov 4.6 23:27:56 40° NNE 23:29:58 58° E 23:36:01 10° SSE visible
27 Nov 6.3 01:11:58 15° WNW 01:15:14 22° WSW 01:19:57 10° SSW visible
27 Nov 6.3 22:00:27 10° ENE 22:03:00 13° ESE 22:05:34 10° SE visible
27 Nov 4.4 23:44:23 39° N 23:46:50 89° E 23:53:03 10° S visible
28 Nov 6.7 01:29:20 10° W 01:32:34 14° WSW 01:35:49 10° SSW visible
28 Nov 5.8 22:16:46 15° ENE 22:19:33 21° E 22:23:57 10° SE visible
29 Nov 4.8 00:00:48 30° NNW 00:03:48 60° WSW 00:09:56 10° S visible
29 Nov 5.3 22:33:10 21° NE 22:36:11 32° E 22:41:34 10° SSE visible
